K7TSD Weather Reports


time (UTC)temp
C
wind
direction
speed
KPH
gust
KPH
rain 1hr
cm
rain 24hr
cm
rain mn
cm
humidity
%
barometer
mb
20260906223130 27 9 0.0 0.0 0.00 0.00 0.00 48 1011.7
20260906222629 27 9 0.0 3.2 0.00 0.00 0.00 48 1011.7
20260906222127 27 359 0.0 0.0 0.00 0.00 0.00 47 1011.8
20260906221626 27 327 0.0 0.0 0.00 0.00 0.00 46 1011.7
20260906221121 27 3 0.0 0.0 0.00 0.00 0.00 45 1011.7
20260906220616 27 39 0.0 0.0 0.00 0.00 0.00 46 1011.8
20260906220112 27 353 0.0 0.0 0.00 0.00 0.00 44 1012.0
20260906215610 28 327 0.0 0.0 0.00 0.00 0.00 44 1011.7
20260906215109 27 44 0.0 1.6 0.00 0.00 0.00 44 1012.2
20260906214608 28 13 0.0 0.0 0.00 0.00 0.00 45 1012.1
20260906214103 28 61 0.0 0.0 0.00 0.00 0.00 44 1011.8
20260906213601 27 19 0.0 0.0 0.00 0.00 0.00 43 1012.0
20260906213057 27 50 0.0 0.0 0.00 0.00 0.00 45 1012.2
20260906212549 27 24 0.0 0.0 0.00 0.00 0.00 47 1012.5
20260906212045 27 21 0.0 0.0 0.00 0.00 0.00 45 1012.4
20260906211539 28 356 0.0 1.6 0.00 0.00 0.00 45 1012.5
20260906211035 27 10 0.0 0.0 0.00 0.00 0.00 46 1012.5
20260906210530 26 345 0.0 0.0 0.00 0.00 0.00 48 1012.8
20260906210030 27 8 0.0 0.0 0.00 0.00 0.00 46 1012.5
20260906205526 27 4 0.0 0.0 0.00 0.00 0.00 45 1013.1
20260906205022 27 354 0.0 0.0 0.00 0.00 0.00 45 1012.9
20260906204520 27 97 0.0 0.0 0.00 0.00 0.00 46 1013.1
20260906204015 28 22 0.0 0.0 0.00 0.00 0.00 46 1013.1
20260906203510 27 34 0.0 0.0 0.00 0.00 0.00 45 1013.0
20260906203009 27 2 0.0 0.0 0.00 0.00 0.00 46 1013.1
20260906202501 26 20 0.0 0.0 0.00 0.00 0.00 47 1012.8
20260906201955 26 112 0.0 0.0 0.00 0.00 0.00 47 1013.1
20260906201450 26 6 1.6 3.2 0.00 0.00 0.00 46 1012.9
20260906200950 27 343 0.0 0.0 0.00 0.00 0.00 47 1013.0
20260906200447 26 155 0.0 0.0 0.00 0.00 0.00 46 1013.2
20260906195946 26 293 0.0 0.0 0.00 0.00 0.00 46 1013.4
20260906195443 26 10 0.0 0.0 0.00 0.00 0.00 46 1013.4
20260906194939 26 26 0.0 0.0 0.00 0.00 0.00 47 1013.2
20260906194434 26 31 0.0 0.0 0.00 0.00 0.00 47 1013.8
20260906193935 27 345 0.0 0.0 0.00 0.00 0.00 46 1013.7
20260906193431 26 63 0.0 0.0 0.00 0.00 0.00 48 1013.7
20260906192926 25 356 0.0 0.0 0.00 0.00 0.00 47 1013.8
20260906192426 26 346 0.0 0.0 0.00 0.00 0.00 49 1014.0
20260906191925 25 349 0.0 0.0 0.00 0.00 0.00 50 1013.8
20260906191420 25 355 0.0 0.0 0.00 0.00 0.00 50 1014.0
20260906190919 25 13 1.6 3.2 0.00 0.00 0.00 50 1014.2
20260906190418 26 141 0.0 0.0 0.00 0.00 0.00 49 1013.9
20260906185913 25 23 0.0 0.0 0.00 0.00 0.00 50 1014.3
20260906185412 25 112 0.0 0.0 0.00 0.00 0.00 51 1014.6
20260906184912 25 344 0.0 0.0 0.00 0.00 0.00 52 1014.3
20260906184407 25 119 0.0 0.0 0.00 0.00 0.00 50 1014.6
20260906183903 25 321 0.0 0.0 0.00 0.00 0.00 51 1014.4
20260906183359 24 48 0.0 0.0 0.00 0.00 0.00 52 1014.5
20260906182859 23 73 0.0 0.0 0.00 0.00 0.00 54 1014.4
20260906182354 24 4 0.0 0.0 0.00 0.00 0.00 54 1014.7
20260906181849 24 87 0.0 0.0 0.00 0.00 0.00 55 1014.4
20260906181345 24 141 0.0 0.0 0.00 0.00 0.00 53 1014.7
20260906180841 23 359 0.0 0.0 0.00 0.00 0.00 54 1015.0
20260906180335 23 52 0.0 0.0 0.00 0.00 0.00 57 1014.9
20260906175834 23 17 0.0 0.0 0.00 0.00 0.00 55 1015.0
20260906175329 23 5 0.0 0.0 0.00 0.00 0.00 55 1015.2
20260906174828 23 2 0.0 0.0 0.00 0.00 0.00 56 1015.0
20260906174327 22 68 0.0 0.0 0.00 0.00 0.00 56 1015.2
20260906173822 22 127 0.0 0.0 0.00 0.00 0.00 57 1015.3
20260906173318 22 118 0.0 0.0 0.00 0.00 0.00 55 1015.3
20260906172817 22 80 0.0 0.0 0.00 0.00 0.00 56 1015.4
20260906172314 22 62 0.0 0.0 0.00 0.00 0.00 58 1015.6
20260906171814 21 48 0.0 0.0 0.00 0.00 0.00 58 1015.4
20260906171308 22 22 0.0 0.0 0.00 0.00 0.00 58 1015.6
20260906170804 22 319 0.0 0.0 0.00 0.00 0.00 57 1015.7
20260906170300 22 51 0.0 0.0 0.00 0.00 0.00 58 1015.6
20260906165756 21 128 0.0 0.0 0.00 0.00 0.00 57 1015.6
20260906165249 21 33 0.0 0.0 0.00 0.00 0.00 58 1015.7
20260906164749 21 19 0.0 0.0 0.00 0.00 0.00 59 1015.6
20260906164244 21 13 0.0 0.0 0.00 0.00 0.00 57 1015.7
20260906163740 21 335 0.0 0.0 0.00 0.00 0.00 58 1016.0
20260906163236 21 129 0.0 0.0 0.00 0.00 0.00 58 1015.8
20260906162733 21 82 0.0 0.0 0.00 0.00 0.00 56 1015.9
20260906162227 20 14 0.0 0.0 0.00 0.00 0.00 59 1015.6
20260906161722 20 94 0.0 0.0 0.00 0.00 0.00 58 1015.8
20260906161221 20 37 0.0 0.0 0.00 0.00 0.00 57 1016.0
20260906160720 20 359 0.0 0.0 0.00 0.00 0.00 59 1015.8
20260906160220 20 69 0.0 0.0 0.00 0.00 0.00 58 1015.6
20260906155717 20 43 0.0 3.2 0.00 0.00 0.00 59 1015.8
20260906155213 20 21 1.6 3.2 0.00 0.00 0.00 58 1015.8
20260906154708 20 60 0.0 0.0 0.00 0.00 0.00 59 1015.8
20260906154209 20 115 0.0 0.0 0.00 0.00 0.00 59 1015.8
20260906153706 20 317 0.0 0.0 0.00 0.00 0.00 60 1015.8
20260906153201 20 106 0.0 0.0 0.00 0.00 0.00 60 1016.0
20260906152656 19 106 0.0 0.0 0.00 0.00 0.00 61 1016.0
20260906152151 19 137 0.0 0.0 0.00 0.00 0.00 60 1015.6
20260906151646 19 80 0.0 0.0 0.00 0.00 0.00 61 1015.9
20260906151142 18 66 0.0 0.0 0.00 0.00 0.00 61 1015.7
20260906150637 18 72 0.0 0.0 0.00 0.00 0.00 61 1016.0
20260906150132 18 81 0.0 0.0 0.00 0.00 0.00 62 1015.6
20260906145631 18 67 0.0 0.0 0.00 0.00 0.00 63 1015.9
20260906145125 18 67 0.0 0.0 0.00 0.00 0.00 63 1015.9
20260906144620 18 15 0.0 0.0 0.00 0.00 0.00 63 1016.0
20260906144115 17 14 0.0 0.0 0.00 0.00 0.00 63 1015.7
20260906143615 17 16 0.0 0.0 0.00 0.00 0.00 63 1015.8
20260906143112 17 78 0.0 0.0 0.00 0.00 0.00 63 1016.0
20260906142610 17 57 0.0 0.0 0.00 0.00 0.00 63 1016.1
20260906142106 17 117 0.0 0.0 0.00 0.00 0.00 63 1016.0
20260906141605 17 86 0.0 0.0 0.00 0.00 0.00 64 1016.0
20260906141100 17 80 0.0 0.0 0.00 0.00 0.00 64 1016.0
20260906140559 16 114 0.0 0.0 0.00 0.00 0.00 65 1016.1
20260906140054 16 96 0.0 0.0 0.00 0.00 0.00 66 1016.0
20260906135551 15 115 0.0 0.0 0.00 0.00 0.00 66 1015.8
20260906135047 15 117 0.0 0.0 0.00 0.00 0.00 66 1016.0
20260906134542 15 102 0.0 0.0 0.00 0.00 0.00 66 1015.9
20260906134037 15 110 0.0 0.0 0.00 0.00 0.00 65 1015.9
20260906133533 15 100 0.0 0.0 0.00 0.00 0.00 63 1015.8
20260906133028 14 121 0.0 0.0 0.00 0.00 0.00 59 1015.9
20260906132523 14 84 0.0 0.0 0.00 0.00 0.00 62 1015.7
20260906132019 13 121 0.0 0.0 0.00 0.00 0.00 63 1015.7
20260906131514 13 135 0.0 0.0 0.00 0.00 0.00 65 1016.0
20260906131010 13 239 0.0 0.0 0.00 0.00 0.00 65 1015.8
20260906130504 13 151 0.0 0.0 0.00 0.00 0.00 66 1015.9
20260906130004 13 162 0.0 0.0 0.00 0.00 0.00 65 1015.8
20260906125501 12 166 0.0 0.0 0.00 0.00 0.00 66 1016.0
20260906125001 12 152 0.0 0.0 0.00 0.00 0.00 66 1015.9
20260906124456 12 141 0.0 0.0 0.00 0.00 0.00 67 1015.9
20260906123950 12 143 0.0 0.0 0.00 0.00 0.00 66 1015.8
20260906123444 12 171 0.0 0.0 0.00 0.00 0.00 66 1015.8
20260906122938 12 189 0.0 0.0 0.00 0.00 0.00 64 1015.8
20260906122433 12 164 0.0 0.0 0.00 0.00 0.00 63 1015.7
20260906121930 12 104 0.0 0.0 0.00 0.00 0.00 66 1015.8
20260906121426 11 138 0.0 0.0 0.00 0.00 0.00 69 1015.7
20260906120923 13 127 0.0 0.0 0.00 0.00 0.00 66 1015.4
20260906120418 12 154 0.0 0.0 0.00 0.00 0.00 63 1015.7
20260906115914 13 168 0.0 0.0 0.00 0.00 0.00 61 1015.6
20260906115409 13 129 0.0 0.0 0.00 0.00 0.00 60 1015.6
20260906114908 14 119 0.0 0.0 0.00 0.00 0.00 59 1015.4
20260906114403 13 152 0.0 0.0 0.00 0.00 0.00 60 1015.2
20260906113859 13 172 0.0 0.0 0.00 0.00 0.00 61 1015.2
20260906113358 14 152 0.0 0.0 0.00 0.00 0.00 59 1015.3
20260906112854 14 238 0.0 0.0 0.00 0.00 0.00 59 1015.2
20260906112349 15 146 0.0 0.0 0.00 0.00 0.00 57 1015.3
20260906111843 15 148 0.0 0.0 0.00 0.00 0.00 55 1015.4
20260906111338 15 176 0.0 0.0 0.00 0.00 0.00 55 1015.0
20260906110832 15 179 0.0 0.0 0.00 0.00 0.00 57 1015.1
20260906110328 14 179 0.0 0.0 0.00 0.00 0.00 59 1015.3
20260906105828 14 162 0.0 0.0 0.00 0.00 0.00 59 1015.2
20260906105323 14 167 0.0 0.0 0.00 0.00 0.00 58 1015.2
20260906104819 14 133 0.0 0.0 0.00 0.00 0.00 61 1015.2
20260906104317 15 165 0.0 0.0 0.00 0.00 0.00 59 1015.2
20260906103816 15 157 0.0 0.0 0.00 0.00 0.00 59 1015.2
20260906103309 15 225 0.0 0.0 0.00 0.00 0.00 60 1015.2
20260906102806 15 167 0.0 0.0 0.00 0.00 0.00 61 1015.2
20260906102306 15 170 0.0 0.0 0.00 0.00 0.00 60 1015.1
20260906101759 15 170 0.0 0.0 0.00 0.00 0.00 57 1015.4
20260906101254 15 154 0.0 0.0 0.00 0.00 0.00 58 1015.4
20260906100750 15 169 0.0 0.0 0.00 0.00 0.00 59 1015.3
20260906100249 15 138 0.0 0.0 0.00 0.00 0.00 61 1015.2
20260906095744 15 160 0.0 0.0 0.00 0.00 0.00 59 1015.0
20260906095240 16 224 0.0 0.0 0.00 0.00 0.00 57 1015.2
20260906094739 16 237 0.0 0.0 0.00 0.00 0.00 58 1015.6
20260906094233 16 234 0.0 0.0 0.00 0.00 0.00 59 1015.6
20260906093730 16 176 0.0 0.0 0.00 0.00 0.00 57 1015.4
20260906093219 16 162 0.0 0.0 0.00 0.00 0.00 56 1015.3
20260906092715 16 236 0.0 0.0 0.00 0.00 0.00 60 1015.7
20260906092209 15 172 0.0 0.0 0.00 0.00 0.00 61 1015.3
20260906091705 16 211 0.0 0.0 0.00 0.00 0.00 59 1015.7
20260906091201 16 243 0.0 0.0 0.00 0.00 0.00 58 1015.6
20260906090656 16 253 0.0 0.0 0.00 0.00 0.00 58 1015.4
20260906090155 16 165 0.0 0.0 0.00 0.00 0.00 58 1015.8
20260906085655 16 249 0.0 0.0 0.00 0.00 0.00 60 1015.6
20260906085149 16 181 0.0 0.0 0.00 0.00 0.00 60 1015.6
20260906084643 16 254 0.0 0.0 0.00 0.00 0.00 60 1015.4
20260906084142 16 239 0.0 0.0 0.00 0.00 0.00 61 1015.7
20260906083638 17 235 0.0 0.0 0.00 0.00 0.00 58 1015.8
20260906083133 17 209 0.0 0.0 0.00 0.00 0.00 57 1015.7
20260906082628 16 226 0.0 0.0 0.00 0.00 0.00 58 1015.9
20260906082123 16 157 0.0 0.0 0.00 0.00 0.00 59 1016.0
20260906081619 16 137 0.0 0.0 0.00 0.00 0.00 60 1016.1
20260906081114 16 252 0.0 0.0 0.00 0.00 0.00 60 1016.4
20260906080611 16 227 0.0 0.0 0.00 0.00 0.00 60 1016.0
20260906080107 16 264 0.0 0.0 0.00 0.00 0.00 60 1016.3
20260906075601 16 225 0.0 0.0 0.00 0.00 0.00 61 1016.4
20260906075056 16 279 0.0 0.0 0.00 0.00 0.00 61 1016.6
20260906074550 16 242 0.0 0.0 0.00 0.00 0.00 61 1016.4
20260906074049 16 230 0.0 0.0 0.00 0.00 0.00 61 1016.5
20260906073545 16 173 0.0 0.0 0.00 0.00 0.00 60 1016.4
20260906073041 16 212 0.0 0.0 0.00 0.00 0.00 60 1016.5
20260906072535 16 152 0.0 0.0 0.00 0.00 0.00 59 1016.4
20260906072032 16 217 0.0 0.0 0.00 0.00 0.00 58 1016.7
20260906071528 16 166 0.0 0.0 0.00 0.00 0.00 60 1016.5
20260906071022 16 180 0.0 0.0 0.00 0.00 0.00 60 1016.5
20260906070519 16 231 0.0 0.0 0.00 0.00 0.00 60 1016.6
20260906070014 16 172 0.0 0.0 0.00 0.00 0.00 61 1016.5
20260906065514 16 161 0.0 0.0 0.00 0.00 0.00 61 1016.6
20260906065010 16 239 0.0 0.0 0.00 0.00 0.00 61 1016.8
20260906064505 16 239 0.0 0.0 0.00 0.00 0.00 61 1016.7
20260906064000 16 247 0.0 0.0 0.00 0.00 0.00 61 1016.7
20260906063455 16 206 0.0 0.0 0.00 0.00 0.00 61 1016.8
20260906062950 16 163 0.0 0.0 0.00 0.00 0.00 60 1016.7
20260906062445 16 212 0.0 0.0 0.00 0.00 0.00 61 1016.9
20260906061940 16 112 0.0 0.0 0.00 0.00 0.00 61 1016.7
20260906061436 17 257 0.0 0.0 0.00 0.00 0.00 59 1016.8
20260906060930 16 201 0.0 0.0 0.00 0.00 0.00 59 1017.1
20260906060427 16 196 0.0 0.0 0.00 0.00 0.00 60 1016.9
20260906055923 16 217 0.0 0.0 0.00 0.00 0.00 60 1017.2
20260906055419 16 159 0.0 0.0 0.00 0.00 0.00 59 1016.9
20260906054914 16 251 0.0 0.0 0.00 0.00 0.00 59 1017.2
20260906054409 16 216 0.0 0.0 0.00 0.00 0.00 60 1016.9
20260906053905 16 222 0.0 0.0 0.00 0.00 0.00 59 1016.8
20260906053401 17 245 0.0 0.0 0.00 0.00 0.00 58 1017.2
20260906052856 16 169 0.0 0.0 0.00 0.00 0.00 59 1017.2
20260906052352 17 220 0.0 0.0 0.00 0.00 0.00 59 1017.1
20260906051849 17 145 0.0 0.0 0.00 0.00 0.00 58 1017.3
20260906051349 16 243 0.0 0.0 0.00 0.00 0.00 58 1017.3
20260906050845 16 178 0.0 0.0 0.00 0.00 0.00 59 1017.3
20260906050339 17 173 0.0 0.0 0.00 0.00 0.00 59 1017.6
20260906045838 17 147 0.0 0.0 0.00 0.00 0.00 59 1017.3
20260906045332 17 220 0.0 0.0 0.00 0.00 0.00 59 1017.3
20260906044829 17 149 0.0 0.0 0.00 0.00 0.00 58 1017.2
20260906044323 17 176 0.0 0.0 0.00 0.00 0.00 58 1017.4
20260906043819 17 217 0.0 0.0 0.00 0.00 0.00 59 1017.3
20260906043314 17 264 0.0 0.0 0.00 0.00 0.00 56 1017.4
20260906042809 17 226 0.0 0.0 0.00 0.00 0.00 56 1017.6
20260906042308 17 209 0.0 0.0 0.00 0.00 0.00 57 1017.3
20260906041804 17 136 0.0 0.0 0.00 0.00 0.00 58 1017.6
20260906041259 17 149 0.0 0.0 0.00 0.00 0.00 56 1017.5
20260906040754 17 127 0.0 0.0 0.00 0.00 0.00 57 1017.3
20260906040249 17 127 0.0 0.0 0.00 0.00 0.00 56 1017.1
20260906035744 17 337 0.0 0.0 0.00 0.00 0.00 57 1017.4
20260906035240 17 185 0.0 0.0 0.00 0.00 0.00 56 1017.1
20260906034740 17 260 0.0 0.0 0.00 0.00 0.00 56 1016.9
20260906034235 18 249 0.0 0.0 0.00 0.00 0.00 55 1017.2
20260906033731 18 226 0.0 0.0 0.00 0.00 0.00 55 1017.2
20260906033230 18 218 0.0 0.0 0.00 0.00 0.00 54 1016.8
20260906032727 18 257 0.0 0.0 0.00 0.00 0.00 55 1017.3
20260906032227 17 196 0.0 0.0 0.00 0.00 0.00 55 1017.3
20260906031722 17 259 0.0 0.0 0.00 0.00 0.00 56 1016.8
20260906031218 18 253 0.0 0.0 0.00 0.00 0.00 55 1017.2
20260906030717 18 244 0.0 0.0 0.00 0.00 0.00 54 1016.9
20260906030212 18 259 0.0 0.0 0.00 0.00 0.00 54 1016.9
20260906025712 18 244 0.0 0.0 0.00 0.00 0.00 55 1016.8
20260906025212 18 297 0.0 0.0 0.00 0.00 0.00 54 1016.8
20260906024711 18 289 0.0 0.0 0.00 0.00 0.00 54 1016.9
20260906024210 18 224 0.0 0.0 0.00 0.00 0.00 53 1016.9
20260906023706 18 211 0.0 0.0 0.00 0.00 0.00 54 1016.8
20260906023201 18 202 0.0 0.0 0.00 0.00 0.00 53 1016.6
20260906022656 18 206 0.0 0.0 0.00 0.00 0.00 54 1016.6
20260906022152 18 230 0.0 0.0 0.00 0.00 0.00 55 1016.6
20260906021647 18 256 0.0 0.0 0.00 0.00 0.00 55 1016.5
20260906021146 18 250 0.0 0.0 0.00 0.00 0.00 56 1016.4
20260906020641 18 134 0.0 0.0 0.00 0.00 0.00 55 1016.8
20260906020136 18 166 0.0 0.0 0.00 0.00 0.00 54 1016.4
20260906015630 18 256 0.0 0.0 0.00 0.00 0.00 55 1016.6
20260906015128 18 223 0.0 0.0 0.00 0.00 0.00 55 1016.8
20260906014623 18 278 0.0 0.0 0.00 0.00 0.00 56 1016.6
20260906014120 18 254 0.0 0.0 0.00 0.00 0.00 56 1016.5
20260906013614 18 148 0.0 0.0 0.00 0.00 0.00 56 1016.0
20260906013110 18 271 0.0 0.0 0.00 0.00 0.00 55 1016.4
20260906012604 18 263 0.0 0.0 0.00 0.00 0.00 55 1016.6
20260906012059 19 175 0.0 0.0 0.00 0.00 0.00 55 1016.4
20260906011555 19 184 0.0 0.0 0.00 0.00 0.00 55 1016.6
20260906011054 20 263 0.0 0.0 0.00 0.00 0.00 53 1016.4
20260906010550 20 233 0.0 0.0 0.00 0.00 0.00 53 1016.4
20260906010047 20 205 0.0 0.0 0.00 0.00 0.00 53 1016.3
20260906005545 20 198 0.0 0.0 0.00 0.00 0.00 52 1016.5
20260906005044 21 235 0.0 0.0 0.00 0.00 0.00 51 1016.5
20260906004544 21 163 0.0 0.0 0.00 0.00 0.00 49 1016.4
20260906004039 22 207 0.0 0.0 0.00 0.00 0.00 47 1016.4
20260906003534 23 94 0.0 0.0 0.00 0.00 0.00 45 1016.4
20260906003030 23 139 0.0 0.0 0.00 0.00 0.00 44 1016.5
20260906002525 23 143 0.0 0.0 0.00 0.00 0.00 44 1016.5
20260906002020 23 100 0.0 0.0 0.00 0.00 0.00 44 1016.3
20260906001515 23 227 0.0 0.0 0.00 0.00 0.00 44 1016.5
20260906001009 23 40 0.0 0.0 0.00 0.00 0.00 43 1016.5
20260906000506 23 121 0.0 0.0 0.00 0.00 0.00 44 1016.6
20260905235959 23 146 0.0 0.0 0.00 0.00 0.00 44 1016.5
20260905235453 25 213 0.0 0.0 0.00 0.00 0.00 41 1016.1
20260905234948 23 350 0.0 0.0 0.00 0.00 0.00 41 1016.5
20260905234445 25 8 0.0 0.0 0.00 0.00 0.00 41 1016.3
20260905233944 25 324 0.0 0.0 0.00 0.00 0.00 41 1016.3
20260905233440 25 237 0.0 0.0 0.00 0.00 0.00 41 1016.3
20260905232938 25 352 0.0 0.0 0.00 0.00 0.00 38 1016.3
20260905232435 26 23 0.0 0.0 0.00 0.00 0.00 38 1016.3
20260905231930 26 124 0.0 0.0 0.00 0.00 0.00 38 1016.4
20260905231426 25 334 0.0 0.0 0.00 0.00 0.00 39 1016.3
20260905230922 25 338 0.0 0.0 0.00 0.00 0.00 39 1016.3
20260905230420 25 329 0.0 0.0 0.00 0.00 0.00 40 1016.6
20260905225919 25 108 0.0 0.0 0.00 0.00 0.00 39 1016.1
20260905225414 25 129 0.0 0.0 0.00 0.00 0.00 39 1016.5
20260905224904 25 344 0.0 0.0 0.00 0.00 0.00 39 1016.5
20260905224359 25 343 0.0 0.0 0.00 0.00 0.00 39 1016.5
20260905223853 25 335 0.0 0.0 0.00 0.00 0.00 40 1016.6